,,PA_Meas_PMT16A,,PR_Meas_QMR101_102,,RH_Meas_QMH101,,SR_Meas_QMS101,,TA_Meas_QMH101,,GenWind,,GenWind,
time,status,PA,status,PR,status,RH,status,SR,status,TA,status,DirAvg,status,SpdAvg,
2013-05-09, 00:00:04,VALID,918.831,VALID,0,VALID,92.8456,VALID,0,VALID,20.3479,VALID,13,VALID,0,
2013-05-09, 00:01:04,VALID,918.853,VALID,0,VALID,92.5483,VALID,0,VALID,20.3284,VALID,10,VALID,0,
2013-05-09, 00:02:04,VALID,918.851,VALID,0,VALID,92.5483,VALID,0,VALID,20.3479,VALID,277,VALID,0,
2013-05-09, 00:03:04,VALID,918.873,VALID,0,VALID,92.3348,VALID,0,VALID,20.3674,VALID,280,VALID,0,
2013-05-09, 00:04:04,VALID,918.915,VALID,0,VALID,92.4339,VALID,0,VALID,20.4064,VALID,294,VALID,0,
2013-05-09, 00:05:04,VALID,918.902,VALID,0,VALID,92.2662,VALID,0,VALID,20.4064,VALID,15,VALID,0,
2013-05-09, 00:06:04,VALID,918.925,VALID,0,VALID,92.2738,VALID,0,VALID,20.4259,VALID,16,VALID,0,
2013-05-09, 00:07:04,VALID,918.907,VALID,0,VALID,92.3119,VALID,0,VALID,20.4259,VALID,16,VALID,0,
2013-05-09, 00:08:04,VALID,918.902,VALID,0,VALID,92.3806,VALID,0,VALID,20.4049,VALID,16,VALID,0,
2013-05-09, 00:09:04,VALID,918.857,VALID,0,VALID,92.2967,VALID,0,VALID,20.4259,VALID,16,VALID,0,
2013-05-09, 00:10:04,VALID,918.807,VALID,0,VALID,92.3577,VALID,0,VALID,20.4275,VALID,27,VALID,0,
2013-05-09, 00:11:04,VALID,918.795,VALID,0,VALID,92.4415,VALID,0,VALID,20.3869,VALID,307,VALID,0,
2013-05-09, 00:12:04,VALID,918.806,VALID,0,VALID,92.4034,VALID,0,VALID,20.3674,VALID,32,VALID,0,
2013-05-09, 00:13:04,VALID,918.77,VALID,0,VALID,92.472,VALID,0,VALID,20.3479,VALID,36,VALID,0,
2013-05-09, 00:14:04,VALID,918.787,VALID,0,VALID,92.5178,VALID,0,VALID,20.3464,VALID,34,VALID,0,
2013-05-09, 00:15:04,VALID,918.792,VALID,0,VALID,92.5178,VALID,0,VALID,20.3464,VALID,34,VALID,0,
2013-05-09, 00:16:04,VALID,918.751,VALID,0,VALID,92.7236,VALID,0,VALID,20.3074,VALID,352,VALID,0,
2013-05-09, 00:17:04,VALID,918.781,VALID,0,VALID,92.838,VALID,0,VALID,20.3074,VALID,32,VALID,0,
2013-05-09, 00:18:04,VALID,918.775,VALID,0,VALID,92.9752,VALID,0.107441,VALID,20.2879,VALID,23,VALID,0,
2013-05-09, 00:19:04,VALID,918.8,VALID,0,VALID,92.9981,VALID,0.107441,VALID,20.2668,VALID,32,VALID,0,
2013-05-09, 00:20:04,VALID,918.779,VALID,0,VALID,92.8303,VALID,0.107441,VALID,20.2684,VALID,13,VALID,0,
2013-05-09, 00:21:04,VALID,918.784,VALID,0,VALID,92.8151,VALID,0,VALID,20.2879,VALID,17,VALID,0,
2013-05-09, 00:22:04,VALID,918.777,VALID,0,VALID,92.5864,VALID,0,VALID,20.2879,VALID,345,VALID,0,
2013-05-09, 00:23:04,VALID,918.734,VALID,0,VALID,92.3882,VALID,0.107441,VALID,20.3284,VALID,9,VALID,0,
2013-05-09, 00:24:04,VALID,918.729,VALID,0,VALID,92.3424,VALID,0.107441,VALID,20.3464,VALID,9,VALID,0,
2013-05-09, 00:25:04,VALID,918.712,VALID,0,VALID,92.2967,VALID,0.107441,VALID,20.3464,VALID,19,VALID,0,
2013-05-09, 00:26:04,VALID,918.679,VALID,0,VALID,92.4568,VALID,0,VALID,20.3674,VALID,21,VALID,0,
2013-05-09, 00:27:04,VALID,918.661,VALID,0,VALID,92.5483,VALID,0.107441,VALID,20.3464,VALID,50,VALID,0,
2013-05-09, 00:28:04,VALID,918.64,VALID,0,VALID,92.5025,VALID,0,VALID,20.3464,VALID,62,VALID,0,
2013-05-09, 00:29:04,VALID,918.669,VALID,0,VALID,92.6397,VALID,0,VALID,20.3479,VALID,62,VALID,0,
2013-05-09, 00:30:04,VALID,918.619,VALID,0,VALID,92.6855,VALID,0,VALID,20.3479,VALID,62,VALID,0,
2013-05-09, 00:31:04,VALID,918.599,VALID,0,VALID,92.6093,VALID,0,VALID,20.3284,VALID,33,VALID,0,
2013-05-09, 00:32:04,VALID,918.614,VALID,0,VALID,92.5102,VALID,0,VALID,20.3089,VALID,329,VALID,0,
2013-05-09, 00:33:04,VALID,918.562,VALID,0,VALID,92.1595,VALID,0,VALID,20.3284,VALID,40,VALID,0,
2013-05-09, 00:34:04,VALID,918.601,VALID,0,VALID,91.9994,VALID,0,VALID,20.3674,VALID,360,VALID,0,
2013-05-09, 00:35:04,VALID,918.574,VALID,0,VALID,91.6182,VALID,0,VALID,20.3674,VALID,336,VALID,0,
2013-05-09, 00:36:04,VALID,918.575,VALID,0,VALID,91.5039,VALID,0,VALID,20.4064,VALID,32,VALID,0,
2013-05-09, 00:37:04,VALID,918.549,VALID,0,VALID,91.5877,VALID,0,VALID,20.4454,VALID,38,VALID,0,
2013-05-09, 00:38:04,VALID,918.564,VALID,0,VALID,91.5648,VALID,0,VALID,20.4244,VALID,26,VALID,0,
2013-05-09, 00:39:04,VALID,918.593,VALID,0,VALID,91.7554,VALID,0,VALID,20.486,VALID,19,VALID,0,
2013-05-09, 00:40:04,VALID,918.557,VALID,0,VALID,91.5115,VALID,0,VALID,20.4454,VALID,270,VALID,0,
2013-05-09, 00:41:04,VALID,918.554,VALID,0,VALID,91.4657,VALID,0,VALID,20.4244,INVALID,360,VALID,0,
2013-05-09, 00:42:04,VALID,918.602,VALID,0,VALID,91.2066,VALID,0,VALID,20.4259,VALID,359,VALID,0,
2013-05-09, 00:43:04,VALID,918.582,VALID,0,VALID,91.1227,VALID,0,VALID,20.4454,VALID,11,VALID,0,
2013-05-09, 00:44:04,VALID,918.582,VALID,0,VALID,91.3438,VALID,0,VALID,20.4454,VALID,12,VALID,0,
2013-05-09, 00:45:04,VALID,918.576,VALID,0,VALID,91.5877,VALID,0,VALID,20.465,VALID,19,VALID,0,
2013-05-09, 00:46:04,VALID,918.545,VALID,0,VALID,91.481,VALID,0,VALID,20.486,VALID,19,VALID,0,
2013-05-09, 00:47:04,VALID,918.441,VALID,0,VALID,91.3743,VALID,0,VALID,20.4454,VALID,27,VALID,0,
2013-05-09, 00:48:04,VALID,918.485,VALID,0,VALID,91.3209,VALID,0,VALID,20.4454,VALID,18,VALID,0,
2013-05-09, 00:49:04,VALID,918.425,VALID,0,VALID,91.016,VALID,0,VALID,20.4049,VALID,346,VALID,0,
2013-05-09, 00:50:04,VALID,918.418,VALID,0,VALID,90.9473,VALID,0,VALID,20.4259,VALID,338,VALID,0,
2013-05-09, 00:51:04,VALID,918.405,VALID,0,VALID,90.9169,VALID,0,VALID,20.4259,VALID,338,VALID,0,
2013-05-09, 00:52:04,VALID,918.369,VALID,0,VALID,90.9473,VALID,0,VALID,20.4049,VALID,338,VALID,0,
2013-05-09, 00:53:04,VALID,918.311,VALID,0,VALID,90.6653,VALID,0,VALID,20.4259,VALID,4,VALID,0,
2013-05-09, 00:54:04,VALID,918.273,VALID,0,VALID,90.9245,VALID,0,VALID,20.4049,VALID,2,VALID,0,
2013-05-09, 00:55:04,VALID,918.267,VALID,0,VALID,91.1074,VALID,0,VALID,20.4064,VALID,9,VALID,0,
2013-05-09, 00:56:04,VALID,918.216,VALID,0,VALID,91.3285,VALID,0,VALID,20.3869,VALID,1,VALID,0,
2013-05-09, 00:57:04,VALID,918.185,VALID,0,VALID,91.4048,VALID,0,VALID,20.3885,VALID,348,VALID,0,
2013-05-09, 00:58:04,VALID,918.164,VALID,0,VALID,91.5572,VALID,0,VALID,20.3284,VALID,344,VALID,0,
2013-05-09, 00:59:04,VALID,918.141,VALID,0,VALID,91.9003,VALID,0.107441,VALID,20.2879,VALID,346,VALID,0,
2013-05-09, 01:00:04,VALID,918.14,VALID,0,VALID,92.1061,VALID,0.107441,VALID,20.2489,VALID,1,VALID,0,
2013-05-09, 01:01:04,VALID,918.09,VALID,0,VALID,92.251,VALID,0,VALID,20.2098,VALID,1,VALID,0,
2013-05-09, 01:02:04,VALID,918.09,VALID,0,VALID,92.3119,VALID,0.107441,VALID,20.2098,VALID,1,VALID,0,
2013-05-09, 01:03:04,VALID,918.094,VALID,0,VALID,92.2891,VALID,0,VALID,20.1903,VALID,1,VALID,0,
2013-05-09, 01:04:04,VALID,918.082,VALID,0,VALID,92.251,VALID,0.107441,VALID,20.2114,VALID,323,VALID,0,
2013-05-09, 01:05:04,VALID,918.066,VALID,0,VALID,92.3196,VALID,0.107441,VALID,20.2098,VALID,27,VALID,0,
2013-05-09, 01:06:04,VALID,918.05,VALID,0,VALID,92.411,VALID,0,VALID,20.2293,VALID,27,VALID,0,
2013-05-09, 01:07:04,VALID,918.052,VALID,0,VALID,92.594,VALID,0.107441,VALID,20.2083,VALID,21,VALID,0,
2013-05-09, 01:08:04,VALID,918.034,VALID,0,VALID,92.7846,VALID,0,VALID,20.2699,VALID,5,VALID,0,
2013-05-09, 01:09:04,VALID,917.989,VALID,0,VALID,92.9371,VALID,0.107441,VALID,20.2293,VALID,7,VALID,0,
2013-05-09, 01:10:04,VALID,917.976,VALID,0,VALID,93.1048,VALID,0.107441,VALID,20.2098,VALID,114,VALID,0,
2013-05-09, 01:11:04,VALID,917.966,VALID,0,VALID,93.3564,VALID,0,VALID,20.2114,VALID,182,VALID,0,
2013-05-09, 01:12:04,VALID,917.968,VALID,0,VALID,93.5927,VALID,0.107441,VALID,20.1903,VALID,61,VALID,0,
2013-05-09, 01:13:04,VALID,917.957,VALID,0,VALID,93.7451,VALID,0.107441,VALID,20.1513,VALID,358,VALID,0,
2013-05-09, 01:14:04,VALID,917.966,VALID,0,VALID,93.951,VALID,0,VALID,20.1529,VALID,166,VALID,0,
2013-05-09, 01:15:04,VALID,917.934,VALID,0,VALID,94.2102,VALID,0,VALID,20.1334,VALID,166,VALID,0,
2013-05-09, 01:16:04,VALID,917.998,VALID,0,VALID,94.3703,VALID,0,VALID,20.1318,VALID,166,VALID,0,
2013-05-09, 01:17:04,VALID,917.976,VALID,0.2,VALID,94.4922,VALID,0,VALID,20.1544,VALID,135,VALID,0,
2013-05-09, 01:18:04,VALID,917.988,VALID,0,VALID,94.5456,VALID,0,VALID,20.0749,VALID,194,VALID,0,
2013-05-09, 01:19:04,VALID,918.014,VALID,0,VALID,94.6371,VALID,0,VALID,20.0553,VALID,213,VALID,0,
2013-05-09, 01:20:04,VALID,917.983,VALID,0,VALID,94.8048,VALID,0,VALID,20.0148,VALID,255,VALID,0,
2013-05-09, 01:21:04,VALID,918.009,VALID,0,VALID,95.064,VALID,0,VALID,20.0358,VALID,286,VALID,0,
2013-05-09, 01:22:04,VALID,917.93,VALID,0,VALID,95.1783,VALID,0,VALID,20.0163,VALID,111,VALID,0,
2013-05-09, 01:23:04,VALID,917.99,VALID,0.2,VALID,95.3156,VALID,0,VALID,20.0163,VALID,318,VALID,0,
2013-05-09, 01:24:04,VALID,917.887,VALID,0,VALID,95.4375,VALID,0,VALID,19.9758,VALID,57,VALID,0,
2013-05-09, 01:25:04,VALID,917.872,VALID,0,VALID,95.5519,VALID,0,VALID,19.9773,VALID,54,VALID,0,
2013-05-09, 01:26:04,VALID,917.909,VALID,0,VALID,95.4604,VALID,0,VALID,19.9383,VALID,285,VALID,0,
2013-05-09, 01:27:04,VALID,917.881,VALID,0,VALID,95.5748,VALID,0,VALID,19.9188,VALID,342,VALID,0,
2013-05-09, 01:28:04,VALID,917.876,VALID,0,VALID,95.651,VALID,0,VALID,19.9398,VALID,32,VALID,0,
2013-05-09, 01:29:04,VALID,917.851,VALID,0,VALID,95.7044,VALID,0,VALID,19.9188,VALID,39,VALID,0,
2013-05-09, 01:30:04,VALID,917.858,VALID,0,VALID,95.6739,VALID,0,VALID,19.9383,VALID,208,VALID,0,
2013-05-09, 01:31:04,VALID,917.839,VALID,0,VALID,95.6815,VALID,0,VALID,19.9188,VALID,166,VALID,0,
2013-05-09, 01:32:04,VALID,917.789,VALID,0,VALID,95.4757,VALID,0,VALID,19.8798,VALID,34,VALID,0,
2013-05-09, 01:33:04,VALID,917.839,VALID,0,VALID,95.4147,VALID,0,VALID,19.8588,VALID,25,VALID,0,
2013-05-09, 01:34:04,VALID,917.811,VALID,0,VALID,95.3003,VALID,0,VALID,19.8618,VALID,28,VALID,0,
2013-05-09, 01:35:04,VALID,917.781,VALID,0,VALID,95.1936,VALID,0,VALID,19.8213,VALID,341,VALID,0,
2013-05-09, 01:36:04,VALID,917.776,VALID,0,VALID,95.247,VALID,0,VALID,19.8213,VALID,4,VALID,0,
2013-05-09, 01:37:04,VALID,917.754,VALID,0,VALID,95.1479,VALID,0,VALID,19.7823,VALID,341,VALID,0,
2013-05-09, 01:38:04,VALID,917.731,VALID,0,VALID,95.0488,VALID,0,VALID,19.7628,VALID,7,VALID,0,
2013-05-09, 01:39:04,VALID,917.722,VALID,0,VALID,95.0564,VALID,0,VALID,19.7238,VALID,14,VALID,0,
2013-05-09, 01:40:04,VALID,917.715,VALID,0,VALID,94.9192,VALID,0,VALID,19.6833,VALID,16,VALID,0,
2013-05-09, 01:41:04,VALID,917.676,VALID,0,VALID,94.8429,VALID,0,VALID,19.6653,VALID,25,VALID,0,
2013-05-09, 01:42:04,VALID,917.671,VALID,0,VALID,94.8124,VALID,0,VALID,19.6458,VALID,31,VALID,0,
2013-05-09, 01:43:04,VALID,917.693,VALID,0,VALID,94.7896,VALID,0,VALID,19.6653,VALID,338,VALID,0,
2013-05-09, 01:44:04,VALID,917.731,VALID,0,VALID,94.7438,VALID,0,VALID,19.6263,VALID,16,VALID,0,
2013-05-09, 01:45:04,VALID,917.698,VALID,0,VALID,94.6905,VALID,0,VALID,19.6068,VALID,29,VALID,0,
2013-05-09, 01:46:04,VALID,917.712,VALID,0,VALID,94.8277,VALID,0,VALID,19.6083,VALID,30,VALID,0,
2013-05-09, 01:47:04,VALID,917.694,VALID,0,VALID,95.0106,VALID,0,VALID,19.5873,VALID,23,VALID,0,
2013-05-09, 01:48:04,VALID,917.723,VALID,0,VALID,95.0106,VALID,0,VALID,19.5873,VALID,11,VALID,0,
2013-05-09, 01:49:04,VALID,917.694,VALID,0,VALID,94.8277,VALID,0,VALID,19.5678,VALID,24,VALID,0,
2013-05-09, 01:50:04,VALID,917.737,VALID,0,VALID,94.9192,VALID,0,VALID,19.5483,VALID,6,VALID,0,
2013-05-09, 01:51:05,VALID,917.758,VALID,0,VALID,95.0259,VALID,0,VALID,19.5483,VALID,34,VALID,0,
2013-05-09, 01:52:05,VALID,917.742,VALID,0,VALID,94.942,VALID,0,VALID,19.5288,VALID,330,VALID,0,
2013-05-09, 01:53:05,VALID,917.697,VALID,0,VALID,94.8963,VALID,0,VALID,19.5093,VALID,346,VALID,0,
2013-05-09, 01:54:05,VALID,917.653,VALID,0,VALID,94.8582,VALID,0,VALID,19.5108,VALID,2,VALID,0,
2013-05-09, 01:55:05,VALID,917.631,VALID,0,VALID,95.0106,VALID,0,VALID,19.5093,VALID,6,VALID,0,
2013-05-09, 01:56:05,VALID,917.616,VALID,0,VALID,95.003,VALID,0,VALID,19.5108,VALID,359,VALID,0,
2013-05-09, 01:57:05,VALID,917.61,VALID,0,VALID,95.0411,VALID,0,VALID,19.5108,VALID,16,VALID,0,
2013-05-09, 01:58:05,VALID,917.602,VALID,0,VALID,95.0411,VALID,0,VALID,19.4508,VALID,350,VALID,0,
2013-05-09, 01:59:05,VALID,917.577,VALID,0,VALID,95.1097,VALID,0,VALID,19.4298,VALID,11,VALID,0,
2013-05-09, 02:00:05,VALID,917.593,VALID,0,VALID,95.1783,VALID,0,VALID,19.4508,VALID,25,VALID,0,
2013-05-09, 02:01:05,VALID,917.576,VALID,0,VALID,95.2698,VALID,0,VALID,19.4118,VALID,337,VALID,0,
2013-05-09, 02:02:05,VALID,917.569,VALID,0,VALID,95.3232,VALID,0,VALID,19.3937,VALID,351,VALID,0,
2013-05-09, 02:03:05,VALID,917.539,VALID,0,VALID,95.4757,VALID,0,VALID,19.3728,VALID,19,VALID,0,
2013-05-09, 02:04:05,VALID,917.488,VALID,0,VALID,95.5976,VALID,0,VALID,19.3728,VALID,17,VALID,0,
2013-05-09, 02:05:05,VALID,917.505,VALID,0,VALID,95.4985,VALID,0,VALID,19.3338,VALID,2,VALID,0,
2013-05-09, 02:06:05,VALID,917.465,VALID,0,VALID,95.4909,VALID,0,VALID,19.3352,VALID,315,VALID,0,
2013-05-09, 02:07:05,VALID,917.459,VALID,0,VALID,95.5519,VALID,0,VALID,19.3157,VALID,357,VALID,0,
2013-05-09, 02:08:05,VALID,917.46,VALID,0,VALID,95.6281,VALID,0,VALID,19.2962,VALID,349,VALID,0,
2013-05-09, 02:09:05,VALID,917.491,VALID,0,VALID,95.6586,VALID,0,VALID,19.2558,VALID,355,VALID,0,
2013-05-09, 02:10:05,VALID,917.478,VALID,0,VALID,95.7577,VALID,0,VALID,19.2558,VALID,22,VALID,0,
2013-05-09, 02:11:05,VALID,917.472,VALID,0,VALID,95.834,VALID,0,VALID,19.2558,VALID,355,VALID,0,
2013-05-09, 02:12:05,VALID,917.5,VALID,0,VALID,95.8263,VALID,0,VALID,19.2363,VALID,331,VALID,0,
2013-05-09, 02:13:05,VALID,917.468,VALID,0,VALID,95.8873,VALID,0,VALID,19.2572,VALID,344,VALID,0,
2013-05-09, 02:14:05,VALID,917.474,VALID,0,VALID,95.9254,VALID,0.107441,VALID,19.2348,VALID,343,VALID,0,
2013-05-09, 02:15:05,VALID,917.483,VALID,0,VALID,95.9712,VALID,0,VALID,19.2363,VALID,19,VALID,0,
2013-05-09, 02:16:05,VALID,917.478,VALID,0,VALID,96.0093,VALID,0,VALID,19.2558,VALID,326,VALID,0,
2013-05-09, 02:17:05,VALID,917.496,VALID,0,VALID,96.0245,VALID,0.107441,VALID,19.2558,VALID,24,VALID,0,
2013-05-09, 02:18:05,VALID,917.479,VALID,0,VALID,96.0703,VALID,0.107441,VALID,19.2348,VALID,2,VALID,0,
2013-05-09, 02:19:05,VALID,917.481,VALID,0,VALID,96.0703,VALID,0,VALID,19.2363,VALID,9,VALID,0,
2013-05-09, 02:20:05,VALID,917.471,VALID,0,VALID,96.0932,VALID,0,VALID,19.2363,VALID,359,VALID,0,
2013-05-09, 02:21:05,VALID,917.447,VALID,0,VALID,96.116,VALID,0,VALID,19.2153,VALID,351,VALID,0,
2013-05-09, 02:22:05,VALID,917.464,VALID,0,VALID,96.1236,VALID,0,VALID,19.2153,VALID,342,VALID,0,
2013-05-09, 02:23:05,VALID,917.449,VALID,0,VALID,96.1313,VALID,0.107441,VALID,19.2363,VALID,358,VALID,0,
2013-05-09, 02:24:05,VALID,917.458,VALID,0,VALID,96.1541,VALID,0,VALID,19.2572,VALID,358,VALID,0,
2013-05-09, 02:25:05,VALID,917.464,VALID,0,VALID,96.1465,VALID,0.107441,VALID,19.2348,VALID,351,VALID,0,
2013-05-09, 02:26:05,VALID,917.501,VALID,0,VALID,96.1465,VALID,0,VALID,19.2558,VALID,17,VALID,0,
2013-05-09, 02:27:05,VALID,917.479,VALID,0,VALID,96.1694,VALID,0,VALID,19.2738,VALID,342,VALID,0,
2013-05-09, 02:28:05,VALID,917.453,VALID,0,VALID,96.1465,VALID,0.107441,VALID,19.2558,VALID,5,VALID,0,
2013-05-09, 02:29:05,VALID,917.455,VALID,0,VALID,96.0932,VALID,0,VALID,19.2572,VALID,358,VALID,0,
2013-05-09, 02:30:05,VALID,917.448,VALID,0,VALID,96.1618,VALID,0,VALID,19.2753,VALID,344,VALID,0,
2013-05-09, 02:31:05,VALID,917.467,VALID,0,VALID,96.1846,VALID,0,VALID,19.2948,VALID,341,VALID,0,
2013-05-09, 02:32:05,VALID,917.468,VALID,0,VALID,96.1999,VALID,0,VALID,19.2948,VALID,328,VALID,0,
2013-05-09, 02:33:05,VALID,917.466,VALID,0,VALID,96.1541,VALID,0,VALID,19.2753,VALID,345,VALID,0,
2013-05-09, 02:34:05,VALID,917.471,VALID,0,VALID,96.1541,VALID,0,VALID,19.2948,VALID,357,VALID,0,
2013-05-09, 02:35:05,VALID,917.457,VALID,0,VALID,96.1313,VALID,0,VALID,19.2753,VALID,351,VALID,0,
2013-05-09, 02:36:05,VALID,917.445,VALID,0,VALID,96.1389,VALID,0,VALID,19.2962,VALID,330,VALID,0,
2013-05-09, 02:37:05,VALID,917.468,VALID,0,VALID,96.1389,VALID,0,VALID,19.3157,VALID,342,VALID,0,
2013-05-09, 02:38:05,VALID,917.465,VALID,0,VALID,96.1008,VALID,0,VALID,19.3143,VALID,9,VALID,0,
2013-05-09, 02:39:05,VALID,917.416,VALID,0,VALID,96.0627,VALID,0,VALID,19.3352,VALID,7,VALID,0,
2013-05-09, 02:40:05,VALID,917.45,VALID,0,VALID,96.0169,VALID,0,VALID,19.3338,VALID,360,VALID,0,
2013-05-09, 02:41:05,VALID,917.378,VALID,0,VALID,95.9636,VALID,0,VALID,19.3143,VALID,7,VALID,0,
2013-05-09, 02:42:05,VALID,917.339,VALID,0,VALID,95.9864,VALID,0,VALID,19.3533,VALID,15,VALID,0,
2013-05-09, 02:43:05,VALID,917.353,VALID,0,VALID,95.9636,VALID,0,VALID,19.3352,VALID,11,VALID,0,
2013-05-09, 02:44:05,VALID,917.324,VALID,0,VALID,95.9407,VALID,0,VALID,19.3143,VALID,8,VALID,0,
2013-05-09, 02:45:05,VALID,917.334,VALID,0,VALID,95.9864,VALID,0,VALID,19.3547,VALID,358,VALID,0,
2013-05-09, 02:46:05,VALID,917.345,VALID,0,VALID,95.9559,VALID,0,VALID,19.3338,VALID,3,VALID,0,
2013-05-09, 02:47:05,VALID,917.308,VALID,0,VALID,95.9636,VALID,0,VALID,19.3338,VALID,30,VALID,0,
2013-05-09, 02:48:05,VALID,917.28,VALID,0,VALID,95.9407,VALID,0,VALID,19.3547,VALID,352,VALID,0,
2013-05-09, 02:49:05,VALID,917.31,VALID,0,VALID,95.9331,VALID,0,VALID,19.3143,VALID,343,VALID,0,
2013-05-09, 02:50:05,VALID,917.258,VALID,0,VALID,95.9178,VALID,0,VALID,19.3338,VALID,355,VALID,0,
2013-05-09, 02:51:05,VALID,917.276,VALID,0,VALID,95.8035,VALID,0,VALID,19.3338,VALID,10,VALID,0,
2013-05-09, 02:52:05,VALID,917.28,VALID,0,VALID,95.8568,VALID,0,VALID,19.3533,VALID,10,VALID,0,
2013-05-09, 02:53:05,VALID,917.24,VALID,0,VALID,95.7577,VALID,0,VALID,19.3533,VALID,10,VALID,0,
2013-05-09, 02:54:05,VALID,917.242,VALID,0,VALID,95.6891,VALID,0,VALID,19.3728,VALID,7,VALID,0,
2013-05-09, 02:55:05,VALID,917.256,VALID,0,VALID,95.651,VALID,0,VALID,19.3728,VALID,357,VALID,0,
2013-05-09, 02:56:05,VALID,917.202,VALID,0,VALID,95.5671,VALID,0,VALID,19.3533,VALID,359,VALID,0,
2013-05-09, 02:57:05,VALID,917.221,VALID,0,VALID,95.5976,VALID,0,VALID,19.3742,VALID,3,VALID,0,
2013-05-09, 02:58:05,VALID,917.189,VALID,0,VALID,95.6434,VALID,0,VALID,19.3742,VALID,7,VALID,0,
2013-05-09, 02:59:05,VALID,917.215,VALID,0,VALID,95.5748,VALID,0,VALID,19.3323,VALID,7,VALID,0,
2013-05-09, 03:00:05,VALID,917.157,VALID,0,VALID,95.6281,VALID,0,VALID,19.3128,VALID,354,VALID,0,
2013-05-09, 03:01:05,VALID,917.154,VALID,0,VALID,95.6662,VALID,0,VALID,19.3128,VALID,332,VALID,0,
2013-05-09, 03:02:05,VALID,917.117,VALID,0,VALID,95.7349,VALID,0,VALID,19.3338,VALID,350,VALID,0,
2013-05-09, 03:03:05,VALID,917.119,VALID,0,VALID,95.8035,VALID,0,VALID,19.3128,VALID,11,VALID,0,
2013-05-09, 03:04:05,VALID,917.097,VALID,0,VALID,95.8187,VALID,0,VALID,19.3323,VALID,17,VALID,0,
2013-05-09, 03:05:05,VALID,917.113,VALID,0,VALID,95.7272,VALID,0.107441,VALID,19.3518,VALID,8,VALID,0,
2013-05-09, 03:06:05,VALID,917.093,VALID,0,VALID,95.6739,VALID,0,VALID,19.3338,VALID,9,VALID,0,
2013-05-09, 03:07:05,VALID,917.053,VALID,0,VALID,95.7196,VALID,0,VALID,19.3143,VALID,10,VALID,0,
2013-05-09, 03:08:05,VALID,917.026,VALID,0.2,VALID,95.7196,VALID,0.107441,VALID,19.2933,VALID,15,VALID,0,
2013-05-09, 03:09:05,VALID,917.039,VALID,0,VALID,95.7806,VALID,0,VALID,19.2948,VALID,17,VALID,0,
2013-05-09, 03:10:05,VALID,917.017,VALID,0,VALID,95.7654,VALID,0,VALID,19.2933,VALID,6,VALID,0,
2013-05-09, 03:11:05,VALID,917.025,VALID,0,VALID,95.7425,VALID,0,VALID,19.2738,VALID,357,VALID,0,
2013-05-09, 03:12:05,VALID,917.041,VALID,0,VALID,95.7958,VALID,0,VALID,19.2948,VALID,343,VALID,0,
2013-05-09, 03:13:05,VALID,917.027,VALID,0,VALID,95.7654,VALID,0,VALID,19.2933,VALID,344,VALID,0,
2013-05-09, 03:14:05,VALID,917.018,VALID,0,VALID,95.7654,VALID,0,VALID,19.3143,VALID,344,VALID,0,
2013-05-09, 03:15:05,VALID,917.025,VALID,0,VALID,95.6815,VALID,0,VALID,19.3143,VALID,20,VALID,0,
2013-05-09, 03:16:05,VALID,917.026,VALID,0,VALID,95.6967,VALID,0,VALID,19.2948,VALID,12,VALID,0,
2013-05-09, 03:17:05,VALID,917.021,VALID,0,VALID,95.6967,VALID,0,VALID,19.2933,VALID,360,VALID,0,
2013-05-09, 03:18:05,VALID,917.004,VALID,0,VALID,95.6205,VALID,0.107441,VALID,19.2543,VALID,23,VALID,0,
2013-05-09, 03:19:05,VALID,916.982,VALID,0,VALID,95.6281,VALID,0,VALID,19.2948,VALID,3,VALID,0,
2013-05-09, 03:20:05,VALID,916.947,VALID,0,VALID,95.5367,VALID,0,VALID,19.2753,VALID,24,VALID,0,
2013-05-09, 03:21:05,VALID,916.938,VALID,0,VALID,95.4299,VALID,0,VALID,19.2543,VALID,11,VALID,0,
2013-05-09, 03:22:05,VALID,916.883,VALID,0,VALID,95.3918,VALID,0,VALID,19.2543,VALID,7,VALID,0,
2013-05-09, 03:23:05,VALID,916.9,VALID,0,VALID,95.3156,VALID,0.107441,VALID,19.2753,VALID,2,VALID,0,
2013-05-09, 03:24:05,VALID,916.851,VALID,0,VALID,95.2241,VALID,0,VALID,19.2348,VALID,357,VALID,0,
2013-05-09, 03:25:05,VALID,916.836,VALID,0,VALID,95.1707,VALID,0.107441,VALID,19.2348,VALID,355,VALID,0,
2013-05-09, 03:26:05,VALID,916.858,VALID,0,VALID,95.1326,VALID,0,VALID,19.2363,VALID,355,VALID,0,
2013-05-09, 03:27:05,VALID,916.85,VALID,0,VALID,95.0716,VALID,0,VALID,19.2153,VALID,10,VALID,0,
2013-05-09, 03:28:05,VALID,916.845,VALID,0,VALID,94.9115,VALID,0,VALID,19.2153,VALID,15,VALID,0,
2013-05-09, 03:29:05,VALID,916.836,VALID,0,VALID,94.8505,VALID,0,VALID,19.2153,VALID,11,VALID,0,
2013-05-09, 03:30:05,VALID,916.828,VALID,0,VALID,94.6905,VALID,0,VALID,19.2558,VALID,17,VALID,0,
2013-05-09, 03:31:05,VALID,916.88,VALID,0,VALID,94.6066,VALID,0.107441,VALID,19.2348,VALID,18,VALID,0,
2013-05-09, 03:32:05,VALID,916.869,VALID,0,VALID,94.4999,VALID,0,VALID,19.2558,VALID,17,VALID,0,
2013-05-09, 03:33:05,VALID,916.841,VALID,0,VALID,94.4465,VALID,0,VALID,19.2753,VALID,29,VALID,0,
2013-05-09, 03:34:05,VALID,916.827,VALID,0,VALID,94.3093,VALID,0,VALID,19.2558,VALID,28,VALID,0,
2013-05-09, 03:35:05,VALID,916.83,VALID,0,VALID,94.2407,VALID,0,VALID,19.2558,VALID,28,VALID,0,
2013-05-09, 03:36:05,VALID,916.822,VALID,0,VALID,94.1797,VALID,0,VALID,19.2363,VALID,28,VALID,0,
2013-05-09, 03:37:05,VALID,916.772,VALID,0,VALID,94.2026,VALID,0,VALID,19.2153,VALID,28,VALID,0,
2013-05-09, 03:38:05,VALID,916.829,VALID,0,VALID,94.1568,VALID,0,VALID,19.2363,VALID,28,VALID,0,
2013-05-09, 03:39:05,VALID,916.796,VALID,0,VALID,94.1034,VALID,0.107441,VALID,19.2348,VALID,28,VALID,0,
2013-05-09, 03:40:05,VALID,916.751,VALID,0,VALID,94.073,VALID,0.107441,VALID,19.2543,VALID,28,VALID,0,
2013-05-09, 03:41:05,VALID,916.774,VALID,0,VALID,94.0272,VALID,0,VALID,19.2543,VALID,28,VALID,0,
2013-05-09, 03:42:05,VALID,916.782,VALID,0,VALID,93.9281,VALID,0,VALID,19.2363,VALID,28,VALID,0,
2013-05-09, 03:43:05,VALID,916.771,VALID,0,VALID,93.8976,VALID,0,VALID,19.2168,VALID,28,VALID,0,
2013-05-09, 03:44:05,VALID,916.741,VALID,0,VALID,93.9434,VALID,0,VALID,19.2168,VALID,28,VALID,0,
2013-05-09, 03:45:05,VALID,916.762,VALID,0,VALID,93.9738,VALID,0,VALID,19.1763,VALID,28,VALID,0,
2013-05-09, 03:46:05,VALID,916.747,VALID,0,VALID,94.012,VALID,0.107441,VALID,19.1958,VALID,28,VALID,0,
2013-05-09, 03:47:05,VALID,916.74,VALID,0,VALID,93.9052,VALID,0,VALID,19.1973,VALID,28,VALID,0,
2013-05-09, 03:48:05,VALID,916.73,VALID,0,VALID,93.9434,VALID,0,VALID,19.1778,VALID,12,VALID,0,
2013-05-09, 03:49:05,VALID,916.723,VALID,0,VALID,93.9662,VALID,0,VALID,19.1778,VALID,11,VALID,0,
2013-05-09, 03:50:05,VALID,916.731,VALID,0,VALID,93.8747,VALID,0.107441,VALID,19.1763,VALID,11,VALID,0,
2013-05-09, 03:51:05,VALID,916.761,VALID,0,VALID,93.7985,VALID,0,VALID,19.1973,VALID,11,VALID,0,
2013-05-09, 03:52:05,VALID,916.782,VALID,0,VALID,93.7909,VALID,0,VALID,19.1958,VALID,11,VALID,0,
2013-05-09, 03:53:05,VALID,916.752,VALID,0,VALID,93.8747,VALID,0,VALID,19.2168,VALID,11,VALID,0,
2013-05-09, 03:54:05,VALID,916.773,VALID,0,VALID,93.8214,VALID,0,VALID,19.2168,VALID,11,VALID,0,
2013-05-09, 03:55:05,VALID,916.763,VALID,0,VALID,93.8747,VALID,0,VALID,19.1763,VALID,11,VALID,0,
2013-05-09, 03:56:05,VALID,916.74,VALID,0,VALID,93.9434,VALID,0,VALID,19.1973,VALID,11,VALID,0,
2013-05-09, 03:57:05,VALID,916.707,VALID,0,VALID,93.89,VALID,0.107441,VALID,19.1958,VALID,11,VALID,0,
2013-05-09, 03:58:05,VALID,916.697,VALID,0,VALID,93.9129,VALID,0,VALID,19.1763,VALID,11,VALID,0,
2013-05-09, 03:59:05,VALID,916.681,VALID,0,VALID,93.8366,VALID,0,VALID,19.1973,VALID,11,VALID,0,